Terminal Aerodrome Forecast
Issued by NWS Sioux Falls, SD

Home | Current Version | Previous Version | Text Only | Print | Product List | Glossary Off
Versions: 1 2 3 4 5 6 7 8 9 10 11 12 13 14 15 16 17

000
FTUS43 KFSD 081730
TAFFSD
TAF
KFSD 081730Z 0818/0918 31011KT P6SM OVC010
     FM082100 29014KT P6SM OVC020
     FM090000 30012KT P6SM BKN150
     FM090300 33015G23KT P6SM SCT020 BKN150
     FM090400 33014G22KT P6SM BKN020
     FM090900 34013KT P6SM BKN030
     FM091400 34010KT P6SM SCT025=

USA.gov is the U.S. government's official web portal to all federal, state and local government web resources and services.